Regional Weather Roundup
Issued by NWS

Home | Current Version | Previous Version | Graphics & Text | Print | Product List | Glossary On
Versions: 1 2 3 4 5 6 7 8 9 10 11 12 13 14 15 16 17 18 19 20 21 22 23 24 25 26 27 28 29 30 31 32 33 34 35 36 37 38 39 40 41 42 43 44 45 46 47 48 49 50
000
ASUS43 KFSD 281302
RWRSD

WEATHER ROUNDUP FOR SOUTH DAKOTA
NATIONAL WEATHER SERVICE SIOUX FALLS SD
700 AM CST SAT FEB 28 2015

NOTE: "FAIR" INDICATES FEW OR NO CLOUDS BELOW 12,000 FEET WITH NO
SIGNIFICANT WEATHER AND/OR OBSTRUCTIONS TO VISIBILITY.


SDZ001>005-009-010-012>017-281400-
NORTHWEST AND NORTH CENTRAL SOUTH DAKOTA

CITY           SKY/WX    TMP DP  RH WIND       PRES   REMARKS
BUFFALO          N/A      7   2  80 W10       29.97R WCI  -8
FAITH            N/A     12   6  77 W8        30.04R WCI   0
MOBRIDGE       CLOUDY    11   3  70 SE13      30.08F WCI  -4
$$

SDZ012>016-024>037-041>051-057-063-072>074-281400-
SOUTHWEST AND SOUTH CENTRAL SOUTH DAKOTA

CITY           SKY/WX    TMP DP  RH WIND       PRES   REMARKS
RAPID CTY ARPT CLEAR     15   8  73 N17       30.03R WCI  -1
PIERRE         CLEAR     10   3  73 S8        30.15S WCI  -2
CUSTER         MOCLDY     4   1  88 CALM      29.88R
ELLSWORTH AFB  CLEAR     15   7  72 N16       30.04R WCI  -1
PHILIP         CLEAR     10   3  73 W5        30.10S WCI   2
PINE RIDGE     CLEAR      9   3  77 S10       30.04R WCI  -5
WINNER         FAIR      12   2  64 S14       30.17F WCI  -3
$$

SDZ004>011-016>023-039-040-281400-
NORTHEAST SOUTH DAKOTA

CITY           SKY/WX    TMP DP  RH WIND       PRES   REMARKS
ABERDEEN       CLEAR      5  -2  72 S13       30.24S WCI -12
WATERTOWN      CLEAR     -1  -6  79 S10       30.26S WCI -17
SISSETON         N/A     10   0  63 SW17      30.27S WCI  -8
$$

SDZ017-020-022-023-036>040-048>070-281400-
SOUTHEAST SOUTH DAKOTA

CITY           SKY/WX    TMP DP  RH WIND       PRES   REMARKS
SIOUX FALLS    PTCLDY     4  -3  73 S10       30.37S WCI -11
HURON          PTCLDY     5  -1  76 S14       30.27F WCI -12
MITCHELL       CLEAR      7   1  76 S9        30.32F WCI  -7
YANKTON        CLEAR      7   0  72 S7        30.38F WCI  -5
$$

ABBREVIATIONS USED IN REMARKS
   TC - TEMPERATURE IN CELSIUS
  WCI - WIND CHILL INDEX
   HX - HEAT INDEX
  VSB - VISIBILITY




USA.gov is the U.S. government's official web portal to all federal, state and local government web resources and services.